Powrót do katalogu

COSMOS 2004

AktywnyMilitariaPO
NORAD 19826·PAYLOAD·🇷🇺 Russia

Wystrzelony Feb 22, 1989 z Plesetsk Cosmodrome

Loading…

Następne Przeloty (najbliższe 24 godziny)

TLE

ŚwieżeSource: Space-Track

Epoka: Sep 14, 2026, 14:57 UTC

1 19826U 89017A   26257.62320432  .00000047  00000-0  35273-4 0  9990
2 19826  82.9520 217.4232 0030272   4.5111 169.5624 13.72561472880750

Śledź COSMOS 2004 w czasie rzeczywistym z AllMySat

Download on the App Store